Buckhead, Georgia, United States (30625)
Lat: 33.57N, Lon: 83.36W
Wx Zone: GAZ049
Local Info
Past Weather Observations for Today

NOTE: This archive is for the closest National Weather Service station to Buckhead. Information may differ from the station used for current weather conditions.

Click here for Long-term Archive

Time Weather Temperature Dewpoint Humidity Pressure Winds Precip Visibility
18:35
Clear
Thunder Storms
82°F / 28°C 79°F / 26°C 89% 29.95 in
(1014 mb)
Calm - 10SM
18:15
Clear
Thunder Storms
82°F / 28°C 77°F / 25°C 84% 29.95 in
(1014 mb)
Calm - 10SM
17:55
Clear
82°F / 28°C 79°F / 26°C 89% 29.92 in
(1013 mb)
Calm - 10SM
17:35
Clear
82°F / 28°C 81°F / 27°C 94% 29.92 in
(1013 mb)
ESE 3.5 mph
(ESE 6 kph)
- 10SM
17:15
Partly Cloudy
Thunder Storms
82°F / 28°C 79°F / 26°C 89% 29.92 in
(1013 mb)
SE 5.8 mph
(SE 9 kph)
- 10SM
16:55
Clear
82°F / 28°C 79°F / 26°C 89% 29.92 in
(1013 mb)
SE 6.9 mph
(SE 11 kph)
- 10SM
16:35
Clear
Thunder Storms
84°F / 29°C 82°F / 28°C 94% 29.92 in
(1013 mb)
SE 8.1 mph
(SE 13 kph)
- 10SM
16:15
Clear
82°F / 28°C 82°F / 28°C 100% 29.92 in
(1013 mb)
SE 5.8 mph
(SE 9 kph)
- 10SM
15:55
Partly Cloudy
82°F / 28°C 82°F / 28°C 100% 29.92 in
(1013 mb)
ESE 8.1 mph
(ESE 13 kph)
- 10SM
15:35
Overcast
82°F / 28°C 77°F / 25°C 84% 29.92 in
(1013 mb)
ESE 6.9 mph
(ESE 11 kph)
- 5SM
15:15
Overcast
Thunder Storms
88°F / 31°C 72°F / 22°C 59% 29.92 in
(1013 mb)
ESE 5.8 mph
(ESE 9 kph)
- 10SM
14:55
Mostly Cloudy
Thunder Storms
95°F / 35°C 72°F / 22°C 47% 29.92 in
(1013 mb)
ESE 9.2 mph
(ESE 15 kph)
- 10SM
14:35
Partly Cloudy
97°F / 36°C 70°F / 21°C 42% 29.92 in
(1013 mb)
Calm - 10SM
14:15
Clear
97°F / 36°C 70°F / 21°C 42% 29.92 in
(1013 mb)
Calm - 10SM
13:55
Partly Cloudy
97°F / 36°C 70°F / 21°C 42% 29.92 in
(1013 mb)
Calm - 10SM
13:35
Partly Cloudy
95°F / 35°C 70°F / 21°C 44% 29.92 in
(1013 mb)
NW 4.6 mph
(NW 7 kph)
- 10SM
13:15
Partly Cloudy
95°F / 35°C 70°F / 21°C 44% 29.95 in
(1014 mb)
SSW 3.5 mph
(SSW 6 kph)
- 10SM
12:55
Partly Cloudy
91°F / 33°C 70°F / 21°C 49% 29.95 in
(1014 mb)
SSW 3.5 mph
(SSW 6 kph)
- 10SM
12:35
Mostly Cloudy
91°F / 33°C 70°F / 21°C 49% 29.95 in
(1014 mb)
Calm - 10SM
12:15
Partly Cloudy
91°F / 33°C 70°F / 21°C 49% 29.98 in
(1015 mb)
WNW 4.6 mph
(WNW 7 kph)
- 10SM
11:55
Clear
91°F / 33°C 70°F / 21°C 49% 29.98 in
(1015 mb)
SW 5.8 mph
(SW 9 kph)
- 10SM
11:35
Clear
88°F / 31°C 72°F / 22°C 59% 29.98 in
(1015 mb)
Calm - 10SM
11:15
Clear
88°F / 31°C 72°F / 22°C 59% 30.01 in
(1016 mb)
Calm - 10SM
10:55
Clear
86°F / 30°C 72°F / 22°C 62% 30.01 in
(1016 mb)
Calm - 10SM
10:35
Clear
86°F / 30°C 73°F / 23°C 66% 30.01 in
(1016 mb)
SSE 3.5 mph
(SSE 6 kph)
- 10SM
10:15
Clear
82°F / 28°C 73°F / 23°C 74% 30.01 in
(1016 mb)
S 3.5 mph
(S 6 kph)
- 10SM
09:55
Clear
82°F / 28°C 77°F / 25°C 84% 30.01 in
(1016 mb)
Calm - 10SM
09:35
Clear
81°F / 27°C 79°F / 26°C 94% 29.98 in
(1015 mb)
Calm - 10SM
09:15
Clear
81°F / 27°C 81°F / 27°C 100% 29.98 in
(1015 mb)
Calm - 10SM
08:55
Clear
79°F / 26°C N/A N/A 30.01 in
(1016 mb)
Calm - 10SM
08:35
Clear
79°F / 26°C N/A N/A 30.01 in
(1016 mb)
Calm - 10SM
08:15
Clear
77°F / 25°C N/A N/A 29.98 in
(1015 mb)
Calm - 7SM
07:55
Clear
77°F / 25°C 77°F / 25°C 100% 30.01 in
(1016 mb)
Calm - 10SM
07:35
Clear
75°F / 24°C 75°F / 24°C 100% 29.98 in
(1015 mb)
Calm - 10SM
07:15
Clear
73°F / 23°C 73°F / 23°C 100% 29.98 in
(1015 mb)
Calm - 7SM
06:55
Clear
72°F / 22°C 72°F / 22°C 100% 29.98 in
(1015 mb)
Calm - 7SM
06:35
Clear
Fog And Mist
72°F / 22°C 72°F / 22°C 100% 29.98 in
(1015 mb)
Calm - 3SM
06:15
Clear
Fog And Mist
72°F / 22°C 72°F / 22°C 100% 29.98 in
(1015 mb)
Calm - 2 1/2SM
05:55
Clear
Fog And Mist
72°F / 22°C 72°F / 22°C 100% 29.95 in
(1014 mb)
Calm - 2 1/2SM
05:35
Clear
Fog And Mist
72°F / 22°C 72°F / 22°C 100% 29.95 in
(1014 mb)
Calm - 3SM
05:15
Clear
Fog And Mist
72°F / 22°C 72°F / 22°C 100% 29.95 in
(1014 mb)
Calm - 4SM
04:55
Clear
Fog And Mist
72°F / 22°C 72°F / 22°C 100% 29.92 in
(1013 mb)
Calm - 4SM
04:35
Clear
Fog And Mist
73°F / 23°C 73°F / 23°C 100% 29.92 in
(1013 mb)
Calm - 4SM
04:15
Clear
Fog And Mist
73°F / 23°C 73°F / 23°C 100% 29.92 in
(1013 mb)
Calm - 5SM
03:55
Clear
73°F / 23°C 73°F / 23°C 100% 29.92 in
(1013 mb)
Calm - 7SM
03:35
Clear
73°F / 23°C 73°F / 23°C 100% 29.92 in
(1013 mb)
Calm - 7SM
03:15
Clear
Fog And Mist
73°F / 23°C 73°F / 23°C 100% 29.92 in
(1013 mb)
Calm - 5SM
02:55
Clear
Fog And Mist
75°F / 24°C 75°F / 24°C 100% 29.95 in
(1014 mb)
Calm - 5SM
02:35
Clear
Fog And Mist
75°F / 24°C 75°F / 24°C 100% 29.92 in
(1013 mb)
Calm - 5SM
02:15
Clear
Fog And Mist
75°F / 24°C 75°F / 24°C 100% 29.92 in
(1013 mb)
Calm - 5SM
01:55
Clear
75°F / 24°C 75°F / 24°C 100% 29.95 in
(1014 mb)
E 3.5 mph
(E 6 kph)
- 7SM
01:35
Clear
77°F / 25°C 77°F / 25°C 100% 29.95 in
(1014 mb)
Calm - 7SM
01:15
Clear
Fog And Mist
77°F / 25°C 77°F / 25°C 100% 29.95 in
(1014 mb)
Calm - 5SM
00:55
Clear
77°F / 25°C N/A N/A 29.98 in
(1015 mb)
Calm - 7SM
00:35
Clear
Hazy
77°F / 25°C N/A N/A 29.98 in
(1015 mb)
Calm - 5SM
00:15
Clear
Hazy
77°F / 25°C N/A N/A 29.98 in
(1015 mb)
Calm - 5SM
Time Weather Temperature Dewpoint Humidity Pressure Winds Precip Visibility


Weather for websites

WeatherForYou.com, LLC is not responsible for any damages or problems caused by this service. Current weather conditions are obtained from the closest station including government and personal stations which may have varying degrees of accuracy. Weather forecasts are derived from the NOAA NDFD. Like all things, this site belongs to Jesus Christ... He just trusts us to maintain it. If you have any questions or comments email webmaster@weatherforyou.com

Copyright © 2015, WeatherForYou.com LLC. All rights reserved.